Location: Bakov nad Jizerou
(50.4784°N, 14.9394°E)
Time: 11:37:41
(UTC+00:00)

Cosmos 1536 Rocket - Pass Details

Date: 26 October 2021
Orbit: 605 x 632 km, 82.5° (Epoch: 29 November)

Event Time Altitude Azimuth Distance (km) Brightness Sun altitude
Rises 16:46:00 0° 332° (NNW) 2,874 7.3 -10.0°
Reaches altitude 10° 16:49:30 10° 302° (WNW) 1,962 6.9 -10.6°
Maximum altitude 16:51:11 12° 279° (W) 1,820 7.3 -10.9°
Drops below altitude 10° 16:52:53 10° 256° (WSW) 1,957 7.7 -11.1°
Sets 16:56:22 0° 226° (SW) 2,856 7.9 -11.7°
